Quillayute, WA

5:05 AM PDT on August 18, 2017 (GMT -0700)
Quillayute

Weather History for KUIL - November, 2013

Change the Weather History Date:

Saturday, November 30, 2013

  Actual Average Record
Temperature  
Mean Temperature 50 °F 42 °F  
Max Temperature 52 °F 47 °F 58 °F (2002)
Min Temperature 48 °F 36 °F 19 °F (2014)
Degree Days  
Heating Degree Days 15 23  
Month to date heating degree days 517 624  
Since 1 July heating degree days 1196 1714  
Cooling Degree Days 0 0  
Month to date cooling degree days 0 0  
Year to date cooling degree days 39 19  
Moisture  
Dew Point 47 °F    
Average Humidity 88    
Maximum Humidity 89    
Minimum Humidity 86    
Precipitation  
Precipitation 0.77 in 0.52 in 2.35 in (1975)
Month to date precipitation 7.92 15.52  
Year to date precipitation 82.48 86.55  
Sea Level Pressure  
Sea Level Pressure 30.23 in    
Wind  
Wind Speed 6 mph (SSE)    
Max Wind Speed 10 mph    
Max Gust Speed 18 mph    
Visibility 2 miles    
Events Fog , Rain    
T = Trace of Precipitation, MM = Missing Value Source: NWS Daily Summary

Daily Weather History Graph

Daily Weather History Graph

Search for Another Location

Airport or City:

Trip Planner

Search our weather history database for the weather conditions in past years. The results will help you decide how hot, cold, wet, or windy it might be!

Date:

Astronomy

Nov. 30, 2013 Rise Set
Actual Time 7:45 AM PST 4:27 PM PST
Civil Twilight 7:10 AM PST 5:03 PM PST
Nautical Twilight 6:31 AM PST 5:42 PM PST
Astronomical Twilight 5:54 AM PST 6:19 PM PST
Moon 4:53 AM PST (11/30) 3:04 PM PST (11/30)
Length of Visible Light 9h 52m
Length of Day
8h 41m
Waning Crescent, 6% of the Moon is Illuminated
Nov 30
Waning Crescent
Dec 2
New
Dec 9
First Quarter
Dec 17
Full
Dec 25
Last Quarter

Hourly Weather History & Observations

Time (PST) Temp. Dew Point Humidity Pressure Visibility Wind Dir Wind Speed Gust Speed Precip Events Conditions
12:03 AM 48.2 °F 44.6 °F 87% 30.31 in 3.0 mi Variable 3.5 mph - 0.01 in Rain Rain
12:10 AM 48.2 °F 44.6 °F 87% 30.31 in 2.5 mi Variable 5.8 mph - 0.01 in Rain Light Rain
12:16 AM 48.2 °F 44.6 °F 87% 30.31 in 3.0 mi SE 4.6 mph - 0.02 in Rain Light Rain
12:18 AM 48.2 °F 44.6 °F 87% 30.31 in 2.5 mi SSE 4.6 mph - 0.02 in Rain Light Rain
12:53 AM 48.0 °F 45.0 °F 89% 30.30 in 2.0 mi SSE 8.1 mph - 0.04 in Rain Light Rain
1:03 AM 48.2 °F 44.6 °F 87% 30.30 in 1.8 mi SSE 6.9 mph - 0.01 in Rain Light Rain
1:11 AM 48.2 °F 44.6 °F 87% 30.30 in 2.5 mi SE 5.8 mph - 0.01 in Rain Light Rain
1:22 AM 48.2 °F 44.6 °F 87% 30.29 in 3.0 mi Variable 5.8 mph - 0.01 in Rain Light Rain
1:53 AM 48.0 °F 45.0 °F 89% 30.29 in 5.0 mi SSE 5.8 mph - 0.02 in Rain Light Rain
2:25 AM 48.2 °F 44.6 °F 87% 30.29 in 2.0 mi Variable 6.9 mph - 0.00 in Rain Light Rain
2:50 AM 48.2 °F 44.6 °F 87% 30.30 in 2.0 mi Variable 3.5 mph - 0.00 in Rain Light Rain
2:53 AM 48.0 °F 45.0 °F 89% 30.30 in 2.0 mi Variable 4.6 mph - 0.01 in Rain Light Rain
3:10 AM 48.2 °F 44.6 °F 87% 30.29 in 2.0 mi SSE 5.8 mph - 0.00 in Rain Light Rain
3:53 AM 48.0 °F 45.0 °F 89% 30.28 in 2.5 mi SE 8.1 mph - 0.01 in Rain Light Rain
4:37 AM 48.2 °F 44.6 °F 87% 30.28 in 1.8 mi SE 3.5 mph - 0.01 in Rain Light Rain
4:53 AM 48.0 °F 45.0 °F 89% 30.28 in 1.5 mi Variable 3.5 mph - 0.01 in Rain Light Rain
5:53 AM 48.0 °F 45.0 °F 89% 30.27 in 1.8 mi SE 4.6 mph - 0.02 in   Overcast
6:40 AM 48.2 °F 44.6 °F 87% 30.26 in 2.5 mi Variable 4.6 mph - 0.02 in   Overcast
6:53 AM 48.0 °F 45.0 °F 89% 30.27 in 2.5 mi SSE 5.8 mph - 0.02 in   Overcast
7:04 AM 48.2 °F 44.6 °F 87% 30.26 in 1.8 mi Variable 5.8 mph - 0.00 in Rain Light Rain
7:11 AM 48.2 °F 44.6 °F 87% 30.26 in 3.0 mi SE 3.5 mph - 0.00 in Rain Light Rain
7:32 AM 48.2 °F 46.4 °F 93% 30.26 in 1.8 mi SSE 4.6 mph - 0.00 in Rain Light Rain
7:53 AM 48.9 °F 46.0 °F 90% 30.27 in 1.8 mi SSE 6.9 mph - 0.01 in Rain Light Rain
8:20 AM 48.2 °F 46.4 °F 93% 30.27 in 1.2 mi SSE 6.9 mph - 0.00 in   Overcast
8:32 AM 48.2 °F 46.4 °F 93% 30.27 in 2.0 mi Variable 5.8 mph - 0.00 in   Overcast
8:43 AM 48.2 °F 46.4 °F 93% 30.27 in 1.2 mi South 5.8 mph - 0.00 in   Overcast
8:53 AM 48.9 °F 46.0 °F 90% 30.27 in 1.0 mi Variable 4.6 mph - 0.01 in   Overcast
9:51 AM 50.0 °F 46.4 °F 87% 30.26 in 2.0 mi Variable 5.8 mph - N/A   Overcast
9:53 AM 50.0 °F 46.9 °F 89% 30.26 in 2.0 mi SSE 8.1 mph - N/A   Overcast
10:16 AM 50.0 °F 46.4 °F 87% 30.27 in 4.0 mi Variable 5.8 mph - N/A   Overcast
10:49 AM 51.8 °F 48.2 °F 88% 30.27 in 1.8 mi SSE 4.6 mph - N/A   Overcast
10:53 AM 51.1 °F 48.0 °F 89% 30.27 in 1.2 mi SSE 4.6 mph - 0.00 in Rain Light Rain
11:18 AM 51.8 °F 48.2 °F 88% 30.27 in 0.8 mi South 6.9 mph - 0.00 in Rain Light Rain
11:53 AM 51.1 °F 48.0 °F 89% 30.26 in 0.8 mi Variable 6.9 mph - 0.01 in Rain Light Rain
12:07 PM 51.8 °F 48.2 °F 88% 30.26 in 0.8 mi Variable 5.8 mph - 0.00 in Rain Light Rain
12:20 PM 51.8 °F 48.2 °F 88% 30.25 in 1.2 mi Variable 3.5 mph - 0.01 in   Overcast
12:43 PM 51.8 °F 48.2 °F 88% 30.25 in 0.5 mi Variable 4.6 mph - 0.01 in Fog , Rain Light Rain
12:53 PM 52.0 °F 48.9 °F 89% 30.25 in 0.8 mi South 5.8 mph - 0.02 in Rain Light Rain
1:53 PM 52.0 °F 48.9 °F 89% 30.23 in 0.8 mi South 4.6 mph - 0.02 in   Overcast
2:53 PM 52.0 °F 48.9 °F 89% 30.22 in 0.5 mi Variable 3.5 mph - 0.03 in Fog , Rain Light Rain
3:24 PM 51.8 °F 48.2 °F 88% 30.22 in 0.5 mi Variable 4.6 mph - 0.01 in Fog , Rain Light Rain
3:53 PM 52.0 °F 48.9 °F 89% 30.23 in 0.5 mi South 4.6 mph - 0.02 in Fog Fog
4:32 PM 51.8 °F 48.2 °F 88% 30.22 in 1.0 mi Variable 3.5 mph - 0.01 in   Overcast
4:53 PM 51.1 °F 48.9 °F 92% 30.22 in 1.0 mi SSE 3.5 mph - 0.02 in   Overcast
5:01 PM 51.8 °F 48.2 °F 88% 30.21 in 0.8 mi South 4.6 mph - N/A   Overcast
5:17 PM 51.8 °F 48.2 °F 88% 30.20 in 1.0 mi Variable 5.8 mph - 0.01 in   Overcast
5:53 PM 51.1 °F 48.9 °F 92% 30.19 in 1.0 mi Variable 5.8 mph - 0.01 in   Overcast
6:02 PM 51.8 °F 48.2 °F 88% 30.19 in 0.8 mi Variable 5.8 mph - 0.01 in Rain Light Rain
6:15 PM 51.8 °F 48.2 °F 88% 30.19 in 1.0 mi South 5.8 mph - 0.01 in Rain Light Rain
6:35 PM 51.8 °F 48.2 °F 88% 30.17 in 1.0 mi Calm Calm - 0.02 in Rain Light Rain
6:53 PM 51.1 °F 48.9 °F 92% 30.17 in 1.0 mi South 4.6 mph - 0.03 in   Overcast
7:53 PM 51.1 °F 48.9 °F 92% 30.16 in 1.2 mi Variable 5.8 mph - 0.05 in Rain Heavy Rain
8:03 PM 51.8 °F 48.2 °F 88% 30.15 in 1.5 mi Variable 4.6 mph - 0.04 in Rain Rain
8:17 PM 51.8 °F 48.2 °F 88% 30.15 in 2.0 mi South 5.8 mph - 0.07 in Rain Light Rain
8:28 PM 51.8 °F 48.2 °F 88% 30.15 in 1.8 mi SSW 8.1 mph - 0.09 in Rain Light Rain
8:46 PM 51.8 °F 48.2 °F 88% 30.14 in 2.0 mi Variable 4.6 mph - 0.13 in Rain Light Rain
8:53 PM 51.1 °F 48.9 °F 92% 30.14 in 2.0 mi South 6.9 mph - 0.14 in Rain Light Rain
9:03 PM 51.8 °F 48.2 °F 88% 30.13 in 2.0 mi South 5.8 mph - 0.01 in Rain Rain
9:26 PM 51.8 °F 48.2 °F 88% 30.12 in 1.5 mi South 5.8 mph - 0.04 in Rain Light Rain
9:53 PM 51.1 °F 48.0 °F 89% 30.11 in 1.8 mi Variable 4.6 mph - 0.07 in Rain Light Rain
10:00 PM 51.8 °F 48.2 °F 88% 30.10 in 2.0 mi South 4.6 mph - 0.01 in Rain Light Rain
10:25 PM 51.8 °F 48.2 °F 88% 30.09 in 1.2 mi South 5.8 mph - 0.04 in Rain Light Rain
10:53 PM 52.0 °F 48.9 °F 89% 30.07 in 2.0 mi South 6.9 mph - 0.08 in Rain Rain
11:45 PM 51.8 °F 48.2 °F 88% 30.04 in 1.5 mi South 6.9 mph - 0.10 in Rain Light Rain
11:53 PM 52.0 °F 48.9 °F 89% 30.04 in 1.2 mi South 6.9 mph - 0.11 in Rain Light Rain